Location: Bullards Ferry
(33.9807°N, 82.8096°W)
Time: 08:19:36
(UTC+00:00)

Tiangong - Visible Passes

Search period start: 04 December 2021 00:00
Search period end: 14 December 2021 00:00
Orbit: 379 x 385 km, 41.5° (Epoch: 04 December)

Date Brightness Start Highest point End Pass type
(mag) Time Alt. Az. Time Alt. Az. Time Alt. Az.
05 Dec 3.8 00:23:24 10° SSW 00:24:05 15° SSW 00:24:05 15° SSW visible
05 Dec 3.2 23:23:58 10° S 23:25:55 15° SE 23:26:47 14° ESE visible
06 Dec 1.5 23:58:51 10° SW 00:01:35 53° S 00:01:35 53° S visible
07 Dec 2.4 22:58:46 10° SSW 23:01:33 29° SE 23:04:07 11° E visible
08 Dec 3.9 00:35:14 10° W 00:36:17 18° W 00:36:17 18° W visible
08 Dec 1.1 23:34:31 10° WSW 23:37:40 74° NNW 23:38:44 38° NE visible
10 Dec 2.9 00:11:13 10° WNW 00:13:16 26° NW 00:13:16 26° NW visible
10 Dec 1.8 23:10:18 10° W 23:13:20 43° NNW 23:15:36 16° NE visible
11 Dec 2.7 23:47:09 10° WNW 23:49:46 23° N 23:50:02 23° N visible
13 Dec 3.9 00:23:52 10° NW 00:24:26 13° NW 00:24:26 13° NW visible
13 Dec 2.9 23:22:58 10° NW 23:25:25 20° N 23:26:40 17° NNE visible
